Weather Roundup
Issued by NWS Chicago, IL

Home | Current Version | Previous Version | Text Only | Print | Product List | Glossary On
Versions: 1 2 3 4 5 6 7 8 9 10 11 12 13 14 15 16 17 18 19 20 21 22 23 24 25 26 27 28 29 30 31 32 33 34 35 36 37 38 39 40 41 42 43 44 45 46 47 48 49 50
000
NZUS59 KLOT 182012
HRRLOT

CHICAGO AREA WEATHER ROUNDUP
NATIONAL WEATHER SERVICE CHICAGO/ROMEOVILLE IL
200 PM CST WED JAN 18 2017

NOTE: "FAIR" INDICATES FEW OR NO CLOUDS BELOW 12,000 FEET WITH NO
SIGNIFICANT WEATHER AND/OR OBSTRUCTIONS TO VISIBILITY.

* THESE STATIONS ARE NOT UNDER NWS QUALITY CONTROL. THEY ALSO MAY NOT
  REPORT WEATHER SUCH AS PRECIPITATION OR FOG.

ILZ005-006-012>014-019>023-182100-
NORTHEAST ILLINOIS

CITY           SKY/WX    TMP DP  RH WIND       PRES   REMARKS
OHARE          CLOUDY    36  32  85 SW14G20   30.06F
MIDWAY         CLOUDY    34  31  88 SW12      30.07F WCI  25
AURORA         CLOUDY    36  32  85 SW10      30.07F
LANSING*       CLOUDY    36  34  93 SW14G22   30.09F
JOLIET*        CLOUDY    38  34  85 SW7       30.09F
WAUKEGAN       CLOUDY    36  32  85 SW12G21   30.04R
DUPAGE AIRPORT CLOUDY    35  31  85 SW15      30.06F WCI  25
WHEELING       CLOUDY    36  31  82 SW14G21   30.06F
KANKAKEE*      CLOUDY    38  33  82 SW10G16   30.09F
MORRIS*        CLOUDY    37  32  83 SW7       30.07F
LEWIS AIRPORT* CLOUDY    36  35  97 SW7       30.08F
NORTHERLY ISL    N/A     36  32  85 W10         N/A
$$

WIZ051-052-058>065-066-070>072-182100-
SOUTHEAST WISCONSIN

CITY           SKY/WX    TMP DP  RH WIND       PRES   REMARKS
MILWAUKEE      CLOUDY    37  31  78 SW18      30.03R
KENOSHA*       CLOUDY    35  32  88 SW16G23   30.03S FOG     WCI  25
RACINE*        CLOUDY    35  31  85 W14G25    30.03F WCI  26
WAUKESHA       CLOUDY    34  30  86 W12       30.02S WCI  25
WEST BEND      CLOUDY    34  32  93 SW16      29.99F WCI  23
$$

INZ001>003-010>013-019-020-182100-
NORTHWEST INDIANA

CITY           SKY/WX    TMP DP  RH WIND       PRES   REMARKS
GARY*          CLOUDY    37  32  81 SW14      30.09F
MICHIGAN CITY* NOT AVBL
RENSSELAER*    NOT AVBL
VALPARAISO     CLOUDY    35  35 100 SW14      30.09F FOG     WCI  26
$$

LMZ740>746-182100-
SOUTHERN LAKE MICHIGAN

STATION/POSITION TIME  SKY/WX   TEMP WIND        PRES    VSBY
                                AIR  DIR/SP/G
                 (UTC)          (F)  (DEG/KT/KT) (MB)    (MI)
HARRISON CRIB    1940            36  230/ 15/ 18   N/A
BURNHAM HARBOR   2000            36  240/  6/ 13   N/A
CALUMET HARBOR   1948            36  210/  8/ 16 1017.7F
BURNS HARBOR     1940            35  220/ 17/ 21 1019.3F
MICHIGAN CITY    NOT AVBL
$$

ABBREVIATIONS USED IN REMARKS
   TC - TEMPERATURE IN CELSIUS
  WCI - WIND CHILL INDEX
   HX - HEAT INDEX
  VSB - VISIBILITY
$$



USA.gov is the U.S. government's official web portal to all federal, state and local government web resources and services.